Weather History for K8D3 - October, 2012

Change the Weather History Date:

Thursday, October 11, 2012

  Actual Average Record
Temperature  
Mean Temperature 34 °F 49 °F  
Max Temperature 47 °F 60 °F 84 °F (1974)
Min Temperature 20 °F 37 °F 15 °F (1935)
Degree Days  
Heating Degree Days 31 17  
Month to date heating degree days 220 160  
Since 1 July heating degree days 467 405  
Cooling Degree Days 0 0  
Month to date cooling degree days 0 0  
Year to date cooling degree days 712 523  
Moisture  
Dew Point 26 °F    
Average Humidity 69    
Maximum Humidity 100    
Minimum Humidity 37    
Precipitation  
Precipitation 0.01 in 0.08 in 0.76 in (1947)
Month to date precipitation 0.04 0.96  
Year to date precipitation 14.48 20.24  
Snow  
Snow 0.00 in - - ()
Month to date snowfall T  
Since 1 July snowfall T  
Snow Depth 0.00 in    
Sea Level Pressure  
Sea Level Pressure 30.24 in    
Wind  
Wind Speed 10 mph (North)    
Max Wind Speed 21 mph    
Max Gust Speed 26 mph    
T = Trace of Precipitation, MM = Missing Value Source: NWS Daily Summary

Daily Weather History Graph

Daily Weather History Graph

Search for Another Location

Airport or City:

Trip Planner

Search our weather history database for the weather conditions in past years. The results will help you decide how hot, cold, wet, or windy it might be!

Date:

Astronomy

Oct. 11, 2012 Rise Set
Actual Time 7:39 AM CDT 6:48 PM CDT
Civil Twilight 7:10 AM CDT 7:18 PM CDT
Nautical Twilight 6:35 AM CDT 7:52 PM CDT
Astronomical Twilight 6:01 AM CDT 8:27 PM CDT
Moon 3:07 AM CDT (10/11) 4:35 PM CDT (10/11)
Length of Visible Light 12h 08m
Length of Day
11h 08m
Waning Crescent, 18% of the Moon is Illuminated
Oct 11
Waning Crescent
Oct 15
New
Oct 21
First Quarter
Oct 29
Full
Nov 6
Last Quarter

Hourly Weather History & Observations

Time (CDT) Temp. Windchill Dew Point Humidity Pressure Visibility Wind Dir Wind Speed Gust Speed Precip Events Conditions
12:56 AM 39.9 °F 30.8 °F 36.0 °F 86% 29.92 in - North 18.4 mph - N/A   Unknown
1:56 AM 39.0 °F 29.3 °F 36.0 °F 89% 29.93 in - NNE 19.6 mph 26.5 mph 0.01 in   Unknown
2:56 AM 37.9 °F 28.9 °F 36.0 °F 93% 30.00 in - North 16.1 mph - N/A   Unknown
3:56 AM 37.0 °F 28.1 °F 35.1 °F 93% 30.03 in - North 15.0 mph - N/A   Unknown
4:56 AM 37.0 °F 28.9 °F 35.1 °F 93% 30.06 in - North 12.7 mph - N/A   Unknown
5:56 AM 36.0 °F 28.0 °F 35.1 °F 97% 30.08 in - North 11.5 mph - N/A   Unknown
6:56 AM 34.0 °F 26.6 °F 33.1 °F 96% 30.12 in - North 9.2 mph - N/A   Unknown
7:56 AM 33.1 °F 26.9 °F 33.1 °F 100% 30.17 in - NW 6.9 mph - N/A   Unknown
8:56 AM 36.0 °F 28.0 °F 33.1 °F 89% 30.22 in - NNW 11.5 mph - N/A   Unknown
10:56 AM 39.9 °F 32.5 °F 28.0 °F 63% 30.28 in - NNE 12.7 mph - N/A   Unknown
11:56 AM 41.0 °F 34.3 °F 27.0 °F 57% 30.30 in - North 11.5 mph - N/A   Unknown
12:56 PM 44.1 °F 36.5 °F 25.0 °F 47% 30.31 in - NNE 17.3 mph - N/A   Unknown
1:56 PM 44.1 °F 37.7 °F 23.0 °F 43% 30.31 in - North 12.7 mph 23.0 mph N/A   Unknown
2:56 PM 45.0 °F 38.9 °F 19.0 °F 36% 30.32 in - North 12.7 mph 21.9 mph N/A   Unknown
3:56 PM 44.1 °F 36.8 °F 19.0 °F 37% 30.33 in - North 16.1 mph - N/A   Unknown
4:56 PM 45.0 °F 38.9 °F 19.9 °F 37% 30.34 in - NNE 12.7 mph - N/A   Unknown
5:56 PM 44.1 °F 37.1 °F 19.0 °F 37% 30.35 in - North 15.0 mph - N/A   Unknown
6:56 PM 39.9 °F 35.1 °F 21.0 °F 47% 30.37 in - North 6.9 mph - N/A   Unknown
7:56 PM 35.1 °F 31.0 °F 19.9 °F 54% 30.40 in - NNW 4.6 mph - N/A   Unknown
8:56 PM 30.9 °F 27.5 °F 19.0 °F 61% 30.41 in - North 3.5 mph - N/A   Unknown
9:56 PM 27.0 °F 23.0 °F 18.0 °F 69% 30.43 in - NNW 3.5 mph - N/A   Unknown
10:56 PM 26.1 °F - 18.0 °F 71% 30.45 in - Calm Calm - N/A   Unknown
11:56 PM 26.1 °F - 18.0 °F 71% 30.45 in - Calm Calm - N/A   Unknown